Regional Weather Roundup
Issued by NWS

Home | Current Version | Previous Version | Graphics & Text | Print | Product List | Glossary On
Versions: 1 2 3 4 5 6 7 8 9 10 11 12 13 14 15 16 17 18 19 20 21 22 23 24 25 26 27 28 29 30 31 32 33 34 35 36 37 38 39 40 41 42 43 44 45 46 47 48 49 50
000
ASUS43 KDMX 200907
RWRIA

WEATHER ROUNDUP FOR IOWA
NATIONAL WEATHER SERVICE DES MOINES IA
400 AM CDT MON OCT 20 2014

NOTE: "FAIR" INDICATES FEW OR NO CLOUDS BELOW 12,000 FEET WITH NO
SIGNIFICANT WEATHER AND/OR OBSTRUCTIONS TO VISIBILITY.

* - THESE STATIONS ARE NOT NWS STATIONS...THUS NOT UNDER NWS
QUALITY CONTROL.  THEY ALSO DO NOT REPORT WEATHER SUCH
AS PRECIPITATION OR FOG.

IAZ001>003-012>014-020>022-031>034-043>046-201000-
   NORTHWEST IOWA

CITY           SKY/WX    TMP DP  RH WIND       PRES   REMARKS
CARROLL *      PTCLDY    48  41  76 NW7       29.97S
CHEROKEE *     CLEAR     39  39 100 CALM      30.00R
DENISON *      CLEAR     43  43 100 NE5       29.97S
LE MARS *      CLEAR     37  37 100 CALM      30.01S
ORANGE CITY *  CLEAR     54  39  58 N5        30.00S
SHELDON *      CLEAR     37  36  93 NW3       29.99S
SIOUX CITY     CLEAR     43  40  89 W3        30.01R
SPENCER        CLEAR     37  34  89 NW8       29.99R WCI  31
STORM LAKE *   CLEAR     46  39  76 N9        30.00R
$$

IAZ055>058-069>071-079>083-090>094-201000-
   SOUTHWEST IOWA

CITY           SKY/WX    TMP DP  RH WIND       PRES   REMARKS
ATLANTIC *     CLEAR     41  41 100 N5        29.97S
AUDUBON *      CLEAR     45  37  76 CALM      29.98S
CLARINDA *     CLEAR     52  48  87 CALM      29.97F
COUNCIL BLFS * CLEAR     52  50  93 NW6       29.96S
CRESTON *      CLEAR     48  46  93 W8        29.96S
HARLAN  *      CLEAR     43  43 100 CALM      30.01S
LAMONI         CLEAR     52  47  83 W10       29.95S
RED OAK *      CLEAR     45  43  93 CALM      29.97S
SHENANDOAH *     N/A     46  45  93 SW5       29.97F
$$

IAZ047>049-059>061-072>074-084-201000-
   CENTRAL IOWA

CITY           SKY/WX    TMP DP  RH WIND       PRES   REMARKS
AMES           CLEAR     50  42  74 NW8       29.94R
ANKENY *       CLEAR     54  45  71 N8        29.94R
CHARITON *     CLEAR     52  46  82 W9        29.93S
DES MOINES     CLEAR     52  45  77 N8        29.94S
GRINNELL*      CLEAR     48  45  87 NW6       29.92R
KNOXVILLE *    CLEAR     50  45  81 W10       29.92R
MARSHALLTOWN   CLEAR     43  41  93 NW8       29.91R
PELLA *        CLEAR     52  46  82 NW8       29.93R
PERRY *          N/A     48  43  81 NW7       29.96S
$$

IAZ004>006-015-016-023>025-035-036-201000-
   NORTH CENTRAL IOWA

CITY           SKY/WX    TMP DP  RH WIND       PRES   REMARKS
ALGONA *       CLEAR     46  41  81 NW6       29.97R
CLARION *      CLEAR     43  41  93 NW3       29.96R
ESTHERVILLE    CLEAR     42  37  82 NW9       29.97R
FORT DODGE *   CLEAR     45  37  76 CALM      29.98R
MASON CITY     CLEAR     44  40  85 NW7       29.95R
FOREST CITY *  CLEAR     45  41  87 NW3       29.94S
IOWA FALLS *     N/A     46  41  81 NW8       29.94S
$$

IAZ007>011-017>019-026>030-037>042-050>054-066-201000-
   NORTHEAST IOWA

CITY           SKY/WX    TMP DP  RH WIND       PRES   REMARKS
CEDAR RAPIDS   CLEAR     48  45  89 NW10      29.87S
CHARLES CITY * CLEAR     48  43  81 NW9       29.92R
CLINTON *      CLEAR     46  41  81 W9        29.86F
DECORAH *      PTCLDY    48  43  81 VRB5      29.87R
DUBUQUE        CLEAR     47  44  90 W8        29.84S
MONTICELLO *   CLEAR     46  45  93 W5        29.86R
OELWEIN *      CLEAR     45  43  93 NW10      29.89R
WATERLOO       CLEAR     48  42  80 NW9       29.90R
$$

IAZ064-065-067-068-078-201000-
   EAST CENTRAL IOWA

CITY           SKY/WX    TMP DP  RH WIND       PRES   REMARKS
DAVENPORT      CLEAR     48  42  80 W9        29.86S
IOWA CITY      CLEAR     47  45  93 W8        29.89S
MT. PLEASANT * CLEAR     52  46  82 W9        29.89S
MUSCATINE *    CLEAR     52  45  76 W6        29.88R
QUAD CITIES    CLEAR     48  43  82 W3        29.86S
$$

IAZ062-063-075>077-085>089-095>099-201000-
   SOUTHEAST IOWA

CITY           SKY/WX    TMP DP  RH WIND       PRES   REMARKS
BURLINGTON     CLEAR     52  47  83 W7        29.88F
FAIRFIELD *    CLEAR     50  45  81 W7        29.89F
FORT MADISON * CLEAR     54  50  87 SW6       29.90S
KEOKUK *       CLEAR     54  48  82 SW12      29.89S
OSKALOOSA *      N/A     50  45  81 NW9       29.91R
CENTERVILLE *  CLEAR     50  48  93 W7        29.94S
OTTUMWA        CLEAR     51  45  79 W9        29.90S
WASHINGTON *   CLEAR     50  48  93 W12G17    29.89R
$$

ABBREVIATIONS USED IN REMARKS
   TC - TEMPERATURES IN CELSIUS
  WCI - WIND CHILL INDEX
   HX - HEAT INDEX
  VSB - VISIBILITY
$$



USA.gov is the U.S. government's official web portal to all federal, state and local government web resources and services.